Simultaneous Nadir Overpasses (SNOs) Predictions

Prediction of SNOs between METOP-A and TERRA Satellite Orbit:

Table of predicted SNOs for the next 14.0 days since TLE Epoch: 7/5/2014
Index Date (METOP-A) Time (METOP-A) Lat,Lon (METOP-A) SZA (METOP-A ) Date (TERRA) Time (TERRA) Lat,Lon (TERRA) SZA (TERRA ) Distance(km) Time Diff (sec)
1 07/05/2014 21:36:30 -81.27, 82.26 118.75 07/05/2014 21:37:19 -81.27, 82.39 118.71 2.20 49
2 07/05/2014 22:27:10 81.28,-110.05 61.31 07/05/2014 22:26:45 81.27,-109.89 61.31 2.87 25
3 07/08/2014 17:10:54 -81.28, 148.88 118.43 07/08/2014 17:11:30 -81.27, 148.86 118.42 0.71 36
4 07/08/2014 18:01:34 81.28, -43.47 61.62 07/08/2014 18:00:56 81.27, -43.45 61.60 0.90 38
5 07/11/2014 12:45:19 -81.28,-144.53 118.07 07/11/2014 12:45:41 -81.29,-144.42 118.04 1.95 22
6 07/11/2014 13:35:59 81.28, 23.06 61.97 07/11/2014 13:35:07 81.29, 23.24 61.97 3.01 52
7 07/14/2014 08:19:45 -81.28, -78.37 117.71 07/14/2014 08:19:53 -81.27, -78.21 117.69 2.68 8
8 07/14/2014 09:10:23 81.29, 89.95 62.42 07/14/2014 09:09:18 81.29, 89.79 62.38 2.72 65
9 07/17/2014 03:03:28 81.28,-179.29 62.73 07/17/2014 03:04:36 81.27,-179.43 62.75 2.47 68




NCC Satellite Simultaneous Nadir Overpasses (SNOs) Prediction Service
